Starlink 32106

operational
NORAD ID: 59690 Int'l Des: 2024-086 Owner: SPXS Country: US Constellation: starlink
LEOCIRCULAR

关于 Starlink 32106

正在加载描述...

实时位置

正在加载3D地球...

即将过境

高度历史

Altitude vs Time

uPlot chart will show altitude changes over time

两行轨道根数

1 59690U 24086J 25304.70195108 .00001590 00000-0 67299-4 0 9996
2 59690 43.0034 60.7005 0001093 286.2216 73.8515 15.27581289 84473
Epoch: Oct 31, 2025 • Age: 19 hours

当前状态

高度 484.7 km
速度 7.63 km/s
星下点 33.77°N, 118.04°W
发射日期 May 8, 2024
运行时间 1.4 years
类型 internet

技术详情

分类 Payload
质量 730.00 kg
干质量 700.00 kg
总质量 730.00 kg
长度 0.30 m
直径 4.10 m
跨度 29.00 m
形状 Box + pan
制造商 SPXS
平台类型 Starlink V2M
阶段状态 In Orbit
所有者/国家 SPXS/US

大型星座

Loading constellations...